| time (UTC) | temp C | wind direction | speed KPH | gust KPH | rain 1hr cm | rain 24hr cm | rain mn cm | humidity % | barometer mb |
| 20260505101751 | 12 | 212 | 3.2 | 3.2 | 0.00 | 0.00 | 0.00 | 83 | 1019.7 |
| 20260505100251 | 12 | 262 | 1.6 | 1.6 | 0.00 | 0.00 | 0.00 | 85 | 1019.6 |
| 20260505094752 | 12 | 259 | 0.0 | 0.0 | 0.00 | 0.00 | 0.00 | 85 | 1019.7 |
| 20260505093248 | 13 | 196 | 1.6 | 3.2 | 0.00 | 0.00 | 0.00 | 85 | 1019.5 |
| 20260505091746 | 13 | 210 | 3.2 | 4.8 | 0.00 | 0.00 | 0.00 | 84 | 1019.3 |
| 20260505090246 | 13 | 261 | 0.0 | 1.6 | 0.00 | 0.00 | 0.00 | 85 | 1019.2 |
| 20260505084743 | 13 | 237 | 0.0 | 0.0 | 0.00 | 0.00 | 0.00 | 85 | 1018.9 |
| 20260505083242 | 13 | 256 | 0.0 | 0.0 | 0.00 | 0.00 | 0.00 | 85 | 1018.6 |
| 20260505081742 | 13 | 233 | 0.0 | 0.0 | 0.00 | 0.00 | 0.00 | 84 | 1018.2 |
| 20260505080238 | 14 | 271 | 0.0 | 0.0 | 0.00 | 0.00 | 0.00 | 83 | 1018.2 |
| 20260505074735 | 15 | 248 | 0.0 | 0.0 | 0.00 | 0.00 | 0.00 | 81 | 1017.7 |
| 20260505073232 | 15 | 278 | 0.0 | 0.0 | 0.00 | 0.00 | 0.00 | 79 | 1017.7 |
| 20260505071732 | 16 | 291 | 0.0 | 0.0 | 0.00 | 0.00 | 0.00 | 75 | 1017.5 |
| 20260505070229 | 17 | 295 | 0.0 | 0.0 | 0.00 | 0.00 | 0.00 | 70 | 1017.3 |
| 20260505064725 | 17 | 293 | 0.0 | 0.0 | 0.00 | 0.00 | 0.00 | 68 | 1017.1 |
| 20260505063222 | 18 | 330 | 1.6 | 1.6 | 0.00 | 0.00 | 0.00 | 65 | 1016.7 |
| 20260505061719 | 18 | 260 | 1.6 | 1.6 | 0.00 | 0.00 | 0.00 | 65 | 1016.7 |
| 20260505060217 | 20 | 292 | 0.0 | 0.0 | 0.00 | 0.00 | 0.00 | 63 | 1016.5 |
| 20260505054712 | 22 | 324 | 3.2 | 3.2 | 0.00 | 0.00 | 0.00 | 60 | 1016.3 |
| 20260505053209 | 20 | 306 | 0.0 | 0.0 | 0.00 | 0.00 | 0.00 | 66 | 1015.9 |
| 20260505051707 | 20 | 294 | 0.0 | 0.0 | 0.00 | 0.00 | 0.00 | 64 | 1015.6 |
| 20260505050207 | 22 | 295 | 1.6 | 1.6 | 0.00 | 0.00 | 0.00 | 54 | 1015.4 |
| 20260505041654 | 26 | 260 | 1.6 | 3.2 | 0.00 | 0.00 | 0.00 | 40 | 1015.4 |
| 20260505040151 | 25 | 329 | 1.6 | 1.6 | 0.00 | 0.00 | 0.00 | 43 | 1015.3 |
| 20260505034646 | 25 | 291 | 3.2 | 3.2 | 0.00 | 0.00 | 0.00 | 42 | 1015.4 |
| 20260505033144 | 24 | 299 | 3.2 | 3.2 | 0.00 | 0.00 | 0.00 | 46 | 1015.4 |
| 20260505031641 | 24 | 259 | 1.6 | 3.2 | 0.00 | 0.00 | 0.00 | 46 | 1015.3 |
| 20260505030136 | 24 | 299 | 1.6 | 3.2 | 0.00 | 0.00 | 0.00 | 47 | 1015.5 |
| 20260505024633 | 24 | 195 | 4.8 | 4.8 | 0.00 | 0.00 | 0.00 | 46 | 1015.7 |
| 20260505023130 | 23 | 201 | 4.8 | 8.0 | 0.00 | 0.00 | 0.00 | 47 | 1015.5 |
| 20260505021627 | 23 | 197 | 6.4 | 8.0 | 0.00 | 0.00 | 0.00 | 48 | 1016.2 |
| 20260505020122 | 23 | 232 | 6.4 | 9.7 | 0.00 | 0.00 | 0.00 | 49 | 1015.9 |
| 20260505014618 | 23 | 184 | 8.0 | 9.7 | 0.00 | 0.00 | 0.00 | 50 | 1016.2 |
| 20260505013116 | 22 | 203 | 3.2 | 3.2 | 0.00 | 0.00 | 0.00 | 52 | 1016.5 |
| 20260505011612 | 22 | 230 | 4.8 | 11.3 | 0.00 | 0.00 | 0.00 | 51 | 1016.6 |
| 20260505010107 | 22 | 337 | 3.2 | 4.8 | 0.00 | 0.00 | 0.00 | 53 | 1016.7 |
| 20260505004603 | 21 | 250 | 6.4 | 9.7 | 0.00 | 0.00 | 0.00 | 55 | 1016.6 |
| 20260505003101 | 21 | 209 | 4.8 | 8.0 | 0.00 | 0.00 | 0.00 | 57 | 1016.7 |
| 20260505001557 | 20 | 271 | 8.0 | 11.3 | 0.00 | 0.00 | 0.00 | 57 | 1016.3 |
| 20260505000055 | 20 | 192 | 6.4 | 8.0 | 0.00 | 0.00 | 0.00 | 59 | 1016.8 |
| 20260504234551 | 20 | 272 | 3.2 | 8.0 | 0.00 | 0.00 | 0.00 | 59 | 1016.6 |
| 20260504233046 | 20 | 206 | 1.6 | 3.2 | 0.00 | 0.00 | 0.00 | 59 | 1016.7 |
| 20260504231543 | 19 | 326 | 4.8 | 4.8 | 0.00 | 0.00 | 0.00 | 63 | 1016.7 |
| 20260504230040 | 18 | 285 | 6.4 | 8.0 | 0.00 | 0.00 | 0.00 | 64 | 1016.9 |
| 20260504224536 | 17 | 307 | 1.6 | 1.6 | 0.00 | 0.00 | 0.00 | 67 | 1016.9 |
| 20260504223032 | 17 | 272 | 4.8 | 4.8 | 0.00 | 0.00 | 0.00 | 67 | 1016.9 |
| 20260504221530 | 17 | 201 | 6.4 | 8.0 | 0.00 | 0.00 | 0.00 | 68 | 1016.3 |
| 20260504220026 | 17 | 192 | 3.2 | 3.2 | 0.00 | 0.00 | 0.00 | 68 | 1016.1 |
| 20260504214521 | 16 | 220 | 8.0 | 11.3 | 0.00 | 0.00 | 0.00 | 68 | 1016.1 |
| 20260504213018 | 16 | 250 | 3.2 | 3.2 | 0.00 | 0.00 | 0.00 | 69 | 1016.1 |
| 20260504211513 | 15 | 300 | 3.2 | 4.8 | 0.00 | 0.00 | 0.00 | 70 | 1015.7 |
| 20260504210010 | 15 | 245 | 3.2 | 4.8 | 0.00 | 0.00 | 0.00 | 71 | 1015.5 |
| 20260504204509 | 15 | 182 | 4.8 | 8.0 | 0.00 | 0.00 | 0.00 | 72 | 1014.4 |
| 20260504203008 | 15 | 320 | 8.0 | 9.7 | 0.00 | 0.00 | 0.00 | 70 | 1014.3 |
| 20260504201504 | 15 | 251 | 8.0 | 9.7 | 0.00 | 0.00 | 0.00 | 72 | 1014.3 |
| 20260504200000 | 14 | 241 | 8.0 | 11.3 | 0.00 | 0.00 | 0.00 | 73 | 1014.5 |
| 20260504194455 | 14 | 220 | 6.4 | 11.3 | 0.00 | 0.00 | 0.00 | 74 | 1014.5 |
| 20260504192953 | 13 | 202 | 4.8 | 4.8 | 0.00 | 0.00 | 0.00 | 75 | 1014.5 |
| 20260504191452 | 13 | 202 | 1.6 | 1.6 | 0.00 | 0.00 | 0.00 | 78 | 1014.6 |
| 20260504185951 | 12 | 194 | 3.2 | 3.2 | 0.00 | 0.00 | 0.00 | 81 | 1014.7 |
| 20260504184446 | 12 | 195 | 0.0 | 0.0 | 0.00 | 0.00 | 0.00 | 83 | 1014.7 |
| 20260504182944 | 12 | 192 | 0.0 | 0.0 | 0.00 | 0.00 | 0.00 | 81 | 1014.5 |
| 20260504181440 | 13 | 192 | 1.6 | 1.6 | 0.00 | 0.00 | 0.00 | 80 | 1014.4 |
| 20260504175935 | 12 | 274 | 0.0 | 0.0 | 0.00 | 0.00 | 0.00 | 81 | 1014.6 |
| 20260504174433 | 13 | 290 | 0.0 | 0.0 | 0.00 | 0.00 | 0.00 | 81 | 1014.3 |
| 20260504172930 | 13 | 269 | 1.6 | 1.6 | 0.00 | 0.00 | 0.00 | 81 | 1014.7 |
| 20260504171425 | 13 | 199 | 4.8 | 4.8 | 0.00 | 0.00 | 0.00 | 83 | 1014.6 |